Regional Weather Roundup
Issued by NWS

Home | Current Version | Previous Version | Graphics & Text | Print | Product List | Glossary On
Versions: 1 2 3 4 5 6 7 8 9 10 11 12 13 14 15 16 17 18 19 20 21 22 23 24 25 26 27 28 29 30 31 32 33 34 35 36 37 38 39 40 41 42 43 44 45 46 47 48 49 50
000
ASUS43 KMKX 270900
RWRWI

WISCONSIN REGIONAL WEATHER ROUNDUP
NATIONAL WEATHER SERVICE MILWAUKEE/SULLIVAN WI
300 AM CST SAT DEC 27 2014

NOTE: "FAIR" INDICATES FEW OR NO CLOUDS BELOW 12,000 FEET WITH NO
SIGNIFICANT WEATHER AND/OR OBSTRUCTIONS TO VISIBILITY.

WIZ001-002-006>008-014>016-023>028-271000-
NORTHWEST WISCONSIN

CITY           SKY/WX    TMP DP  RH WIND       PRES   REMARKS
SUPERIOR ARPT  CLOUDY    27  20  76 NW5       30.09R WCI  21
ASHLAND        FLURRIES  28  26  92 N7        30.05R WCI  21
HAYWARD        LGT SNOW  27  24  89 N6        30.00F FOG     WCI  20
SIREN          LGT SNOW  26  24  94 N6        30.04F WCI  19
CUMBERLAND     LGT SNOW  28  27  93 N10       29.98F WCI  19
RICE LAKE      LGT SNOW  28  26  92 N8        30.00S WCI  20
CHETEK         LGT SNOW  28  27  96 CALM      29.99S
LADYSMITH      LGT SNOW  29  28  94 N9        29.98F WCI  21
EAU CLAIRE     LGT SNOW  30  27  88 N6        29.95F VSB 3/4 WCI  24
MENOMONIE      LGT SNOW  30  29  96 N7        29.98S VSB 3/4 WCI  23
NEW RICHMOND   LGT SNOW  27  27  99 N8        30.00S WCI  19
OSCEOLA        LGT SNOW  27  27 100 N8        30.04S WCI  18
$$

WIZ003>005-009-010-017-018-271000-
NORTH CENTRAL WISCONSIN

CITY           SKY/WX    TMP DP  RH WIND       PRES   REMARKS
MANITOWISH WTR LGT SNOW  28  28 100 N3        29.95F
ARBOR VITAE    LGT SNOW  32  30  94 NE5       29.95F WCI  27
WOODRUFF       LGT SNOW  32  30  94 NE5       29.95F WCI  27
RHINELANDER    LGT SNOW  29  27  92 NE6       29.94F VSB 1   WCI  23
EAGLE RIVER    LGT SNOW  29  29 100 CALM      29.95S
LAND O LAKES   LGT SNOW  29  28  96 NE5       29.96F WCI  24
PHILLIPS       LGT SNOW  28  27  96 N8        29.96S WCI  19
TOMAHAWK       LGT SNOW  29  28  95 CALM      29.95F VSB 1
MEDFORD        LGT SNOW  30  29  96 NE6       29.93S WCI  24
MERRILL        LGT SNOW  31  31 100 CALM      29.95S
$$

WIZ029-030-035-036-043>047-271000-
CENTRAL WISCONSIN

CITY           SKY/WX    TMP DP  RH WIND       PRES   REMARKS
WAUSAU         LGT SNOW  32  31  96 E5        29.92F FOG     WCI  27
MOSINEE        LGT SNOW  32  32 100 E5        29.95F WCI  27
MARSHFIELD     CLOUDY    33  31  92 E7        29.92F FOG     WCI  27
STEVENS POINT  MIX PCPN  31  31 100 E5        29.95F WCI  26
WAUPACA        FOG       35  34  96 CALM      29.97F VSB 1/2
WAUTOMA        NOT AVBL
WISC RAPIDS    CLOUDY    33  31  92 E5        29.94F FOG     WCI  29
CAMP DOUGLAS   LGT RAIN  32  32 100 E5        29.92F FOG     WCI  27
$$

WIZ011>013-019>022-031-037>040-048>050-271000-
NORTHEAST WISCONSIN

CITY           SKY/WX    TMP DP  RH WIND       PRES   REMARKS
ANTIGO         LGT SNOW  31  31  99 E5        29.94F WCI  26
SHAWANO        CLOUDY    34  33  96 E5        29.97F FOG     WCI  30
OCONTO         CLOUDY    33  33 100 CALM      29.98S
STURGEON BAY   CLOUDY    37  36  93 E3        29.98S VSB 1
GREEN BAY      FOG       34  34 100 NE5       29.98R VSB 1/4 WCI  30
MANITOWOC      NOT AVBL
APPLETON       FOG       32  32 100 NE3       29.96F VSB 1/4
CLINTONVILLE   CLOUDY    32  32 100 E3        29.97S FOG
OSHKOSH        CLOUDY    34  32  92 NE3       29.94F FOG
$$

WIZ032>034-041-042-053>061-271000-
SOUTHWEST WISCONSIN

CITY           SKY/WX    TMP DP  RH WIND       PRES   REMARKS
LA CROSSE      LGT SNOW  33  32  96 N6        29.91F FOG     WCI  28
SPARTA         DRIZZLE   33  33  99 CALM      29.94F
VIROQUA        CLOUDY    33  33 100 E6        29.89F WCI  28
BOSCOBEL       LGT RAIN  34  32  92 CALM      29.90F
PRAIRIE DU CHI CLOUDY    34  32  93 E3        29.90F
PLATTEVILLE    PTCLDY    37  36  95 E10       29.88F WCI  30
$$

WIZ056-057-062-063-064-067-068-271000-
SOUTH CENTRAL WISCONSIN

CITY           SKY/WX    TMP DP  RH WIND       PRES   REMARKS
REEDSBURG      CLOUDY    32  32  99 NE3       29.93F FOG
BARABOO/DELLS  CLOUDY    32  31  98 CALM      29.93S FOG
LONE ROCK      NOT AVBL
MINERAL POINT  MOCLDY    37  36  93 E7        29.88F WCI  32
MADISON        CLOUDY    36  34  92 NW3       29.92F FOG
MIDDLETON      CLOUDY    37  36  98 CALM      29.93F
WATERTOWN      LGT RAIN  38  38 100 SE3       29.94S
MONROE         DRIZZLE   41  41 100 S6        29.92F
JANESVILLE     CLOUDY    45  43  93 S6        29.94F
$$

WIZ051-052-058>065-066-070>072-271000-
SOUTHEAST WISCONSIN

CITY           SKY/WX    TMP DP  RH WIND       PRES   REMARKS
MILWAUKEE      LGT RAIN  45  41  86 S6        29.96F
WAUKESHA       DRIZZLE   41  39  93 S7        29.96F
MILWAUKEE/TIMM RAIN      41  37  87 S6        29.97F
RACINE         CLOUDY    44  40  85 S6        29.98F
BURLINGTON     CLOUDY    43  40  91 S6        29.96S
KENOSHA        LGT RAIN  45  42  89 S6        29.96F
FOND DU LAC    CLOUDY    33  31  92 S5        29.94F FOG     WCI  29
SHEBOYGAN      FOG       34  34 100 CALM      29.96F VSB 1/4
WEST BEND      CLOUDY    34  32  93 CALM      29.95F
JUNEAU         LGT RAIN  36  34  94 CALM      29.96R
$$

LSZ147-162-271000-
LAKE SUPERIOR

STATION/POSITION TIME  TEMP    WIND        PRES    WAVE
                       AIR SEA DIR/SP/G            HT/PER
                 (UTC) (F)     (DEG/KT/KT) (MB)    (FT/S)
DEVILS ISLAND    0800   29      10/ 15/ 17 1018.8F
PORT WING        0800   29      20/  9/ 13 1017.9F
SAXON HARBOR     0800   31      10/ 12/ 15 1017.3F
$$

LMZ867-665-643>646-271000-
LAKE MICHIGAN

STATION/POSITION TIME  TEMP    WIND        PRES    WAVE
                       AIR SEA DIR/SP/G            HT/PER
                 (UTC) (F)     (DEG/KT/KT) (MB)    (FT/S)
CHAMBERS ISLAND  0800   34      40/  6/  8 1015.9S
NORTHPORT PIER   0800   35      60/  5/  6 1015.9S
SISTER BAY       0813          110/  4/  7   N/A
ALGOMA LAKESHORE 0630           70/  9/ 12   N/A
KEWAUNEE LAKESHO 0800   36      40/  3/  6 1014.0F
SHEBOYGAN LAKESH 0800   38 38   70/  1/  2 1015.5F
PORT WASHINGTON  0800   38      50/  3/  4 1015.6
MILWAUKEE LAKESH 0800   44     170/  4/  5   N/A
KENOSHA   LAKESH 0800   40     180/  8/  9 1015.2F
$$

TC  - TEMPERATURE IN CELSIUS
VSB - VISIBILITY IN STATUTE MILES
WCI - WIND CHILL INDEX
HX  - HEAT INDEX




USA.gov is the U.S. government's official web portal to all federal, state and local government web resources and services.